User: anonymous
Location: Unspecified
(0.0000°N, 0.0000°E)
Time: 23:05:20
(UTC+02:00)
Language:

Resurs 01 Rocket - Orbit

View from above orbital plane
View from above orbital plane
View from above satellite
View from above satellite

Ground track
Ground track

The orbit data is extracted from the following two-line orbital elements,

1 23343U 94074B   14112.64191832  .00000651  00000-0  10219-3 0  9822
2 23343 098.2233 115.5624 0007997 152.0117 344.2487 14.76080664 46900
Epoch (UTC): 22 April 2014 15:24:21
Eccentricity: 0.0007997
inclination: 98.2233°
perigee height: 636 km
apogee height: 647 km
right ascension of ascending node: 115.5624°
argument of perigee: 152.0117°
revolutions per day: 14.76080664
mean anomaly at epoch: 344.2487°
orbit number at epoch: 4690

The dashed part of the orbit path shows where the satellite is in the earth's shadow,  

DLR